Year,Month,Day,Hour,Minute,Value (Times are PST for temperature in C)
2016,04,29,00,00,9.20
2016,04,29,00,01,9.20
2016,04,29,00,02,9.20
2016,04,29,00,03,9.20
2016,04,29,00,04,9.20
2016,04,29,00,05,9.20
2016,04,29,00,06,9.20
2016,04,29,00,07,9.20
2016,04,29,00,08,9.20
2016,04,29,00,09,9.20
2016,04,29,00,10,9.20
2016,04,29,00,11,9.20
2016,04,29,00,12,9.20
2016,04,29,00,13,9.10
2016,04,29,00,14,9.10
2016,04,29,00,15,9.10
2016,04,29,00,16,9.10
2016,04,29,00,17,9.20
2016,04,29,00,18,9.10
2016,04,29,00,19,9.20
2016,04,29,00,20,9.20
2016,04,29,00,21,9.20
2016,04,29,00,22,9.20
2016,04,29,00,23,9.20
2016,04,29,00,24,9.20
2016,04,29,00,25,9.20
2016,04,29,00,26,9.20
2016,04,29,00,27,9.20
2016,04,29,00,28,9.20
2016,04,29,00,29,9.20
2016,04,29,00,30,9.20
2016,04,29,00,31,9.20
2016,04,29,00,32,9.20
2016,04,29,00,33,9.20
2016,04,29,00,34,9.20
2016,04,29,00,35,9.20
2016,04,29,00,36,9.20
2016,04,29,00,37,9.20
2016,04,29,00,38,9.20
2016,04,29,00,39,9.20
2016,04,29,00,40,9.20
2016,04,29,00,41,9.20
2016,04,29,00,42,9.20
2016,04,29,00,43,9.20
2016,04,29,00,44,9.20
2016,04,29,00,45,9.20
2016,04,29,00,46,9.10
2016,04,29,00,47,9.10
2016,04,29,00,48,9.10
2016,04,29,00,49,9.10
2016,04,29,00,50,9.10
2016,04,29,00,51,9.10
2016,04,29,00,52,9.10
2016,04,29,00,53,9.10
2016,04,29,00,54,9.10
2016,04,29,00,55,9.10
2016,04,29,00,56,9.10
2016,04,29,00,57,9.10
2016,04,29,00,58,9.10
2016,04,29,00,59,9.10
2016,04,29,01,00,9.10
2016,04,29,01,01,9.10
2016,04,29,01,02,9.10
2016,04,29,01,03,9.10
2016,04,29,01,04,9.10
2016,04,29,01,05,9.10
2016,04,29,01,06,9.10
2016,04,29,01,07,9.10
2016,04,29,01,08,9.10
2016,04,29,01,09,9.10
2016,04,29,01,10,9.10
2016,04,29,01,11,9.10
2016,04,29,01,12,9.10
2016,04,29,01,13,9.10
2016,04,29,01,14,9.10
2016,04,29,01,15,9.10
2016,04,29,01,16,9.10
2016,04,29,01,17,9.10
2016,04,29,01,18,9.00
2016,04,29,01,19,9.00
2016,04,29,01,20,9.00
2016,04,29,01,21,9.00
2016,04,29,01,22,9.00
2016,04,29,01,23,9.00
2016,04,29,01,24,9.00
2016,04,29,01,25,9.00
2016,04,29,01,26,9.00
2016,04,29,01,27,9.00
2016,04,29,01,28,9.00
2016,04,29,01,29,9.00
2016,04,29,01,30,8.90
2016,04,29,01,31,8.90
2016,04,29,01,32,8.90
2016,04,29,01,33,8.90
2016,04,29,01,34,8.80
2016,04,29,01,35,8.80
2016,04,29,01,36,8.80
2016,04,29,01,37,8.80
2016,04,29,01,38,8.80
2016,04,29,01,39,8.80
2016,04,29,01,40,8.80
2016,04,29,01,41,8.70
2016,04,29,01,42,8.70
2016,04,29,01,43,8.70
2016,04,29,01,44,8.70
2016,04,29,01,45,8.70
2016,04,29,01,46,8.70
2016,04,29,01,47,8.70
2016,04,29,01,48,8.70
2016,04,29,01,49,8.60
2016,04,29,01,50,8.60
2016,04,29,01,51,8.60
2016,04,29,01,52,8.60
2016,04,29,01,53,8.60
2016,04,29,01,54,8.60
2016,04,29,01,55,8.60
2016,04,29,01,56,8.60
2016,04,29,01,57,8.50
2016,04,29,01,58,8.50
2016,04,29,01,59,8.50
2016,04,29,02,00,8.50
2016,04,29,02,01,8.50
2016,04,29,02,02,8.50
2016,04,29,02,03,8.50
2016,04,29,02,04,8.50
2016,04,29,02,05,8.40
2016,04,29,02,06,8.40
2016,04,29,02,07,8.40
2016,04,29,02,08,8.40
2016,04,29,02,09,8.40
2016,04,29,02,10,8.40
2016,04,29,02,11,8.40
2016,04,29,02,12,8.40
2016,04,29,02,13,8.40
2016,04,29,02,14,8.40
2016,04,29,02,15,8.40
2016,04,29,02,16,8.40
2016,04,29,02,17,8.40
2016,04,29,02,18,8.30
2016,04,29,02,19,8.30
2016,04,29,02,20,8.30
2016,04,29,02,21,8.30
2016,04,29,02,22,8.30
2016,04,29,02,23,8.30
2016,04,29,02,24,8.30
2016,04,29,02,25,8.30
2016,04,29,02,26,8.20
2016,04,29,02,27,8.20
2016,04,29,02,28,8.20
2016,04,29,02,29,8.20
2016,04,29,02,30,8.20
2016,04,29,02,31,8.20
2016,04,29,02,32,8.20
2016,04,29,02,33,8.20
2016,04,29,02,34,8.20
2016,04,29,02,35,8.20
2016,04,29,02,36,8.20
2016,04,29,02,37,8.10
2016,04,29,02,38,8.10
2016,04,29,02,39,8.10
2016,04,29,02,40,8.10
2016,04,29,02,41,8.10
2016,04,29,02,42,8.10
2016,04,29,02,43,8.10
2016,04,29,02,44,8.10
2016,04,29,02,45,8.00
2016,04,29,02,46,8.00
2016,04,29,02,47,8.00
2016,04,29,02,48,8.00
2016,04,29,02,49,8.00
2016,04,29,02,50,7.90
2016,04,29,02,51,7.90
2016,04,29,02,52,7.90
2016,04,29,02,53,7.90
2016,04,29,02,54,7.90
2016,04,29,02,55,7.90
2016,04,29,02,56,7.90
2016,04,29,02,57,7.90
2016,04,29,02,58,7.80
2016,04,29,02,59,7.80
2016,04,29,03,00,7.80
2016,04,29,03,01,7.80
2016,04,29,03,02,7.80
2016,04,29,03,06,7.70
2016,04,29,03,07,7.70
2016,04,29,03,08,7.70
2016,04,29,03,09,7.70
2016,04,29,03,10,7.70
2016,04,29,03,11,7.70
2016,04,29,03,12,7.70
2016,04,29,03,13,7.70
2016,04,29,03,14,7.70
2016,04,29,03,15,7.60
2016,04,29,03,16,7.60
2016,04,29,03,17,7.60
2016,04,29,03,18,7.60
2016,04,29,03,19,7.60
2016,04,29,03,20,7.60
2016,04,29,03,21,7.60
2016,04,29,03,22,7.50
2016,04,29,03,23,7.50
2016,04,29,03,24,7.50
2016,04,29,03,25,7.50
2016,04,29,03,26,7.40
2016,04,29,03,27,7.40
2016,04,29,03,28,7.40
2016,04,29,03,29,7.40
2016,04,29,03,30,7.40
2016,04,29,03,31,7.40
2016,04,29,03,32,7.40
2016,04,29,03,33,7.40
2016,04,29,03,34,7.40
2016,04,29,03,35,7.40
2016,04,29,03,36,7.40
2016,04,29,03,37,7.40
2016,04,29,03,38,7.40
2016,04,29,03,39,7.40
2016,04,29,03,40,7.30
2016,04,29,03,41,7.30
2016,04,29,03,42,7.30
2016,04,29,03,43,7.30
2016,04,29,03,44,7.30
2016,04,29,03,45,7.30
2016,04,29,03,46,7.30
2016,04,29,03,47,7.30
2016,04,29,03,48,7.30
2016,04,29,03,49,7.30
2016,04,29,03,50,7.30
2016,04,29,03,51,7.30
2016,04,29,03,52,7.30
2016,04,29,03,53,7.30
2016,04,29,03,54,7.30
2016,04,29,03,55,7.30
2016,04,29,03,56,7.30
2016,04,29,03,57,7.20
2016,04,29,03,58,7.20
2016,04,29,03,59,7.20
2016,04,29,04,00,7.20
2016,04,29,04,01,7.20
2016,04,29,04,02,7.20
2016,04,29,04,03,7.20
2016,04,29,04,04,7.20
2016,04,29,04,05,7.10
2016,04,29,04,06,7.10
2016,04,29,04,07,7.10
2016,04,29,04,08,7.10
2016,04,29,04,09,7.10
2016,04,29,04,10,7.10
2016,04,29,04,11,7.10
2016,04,29,04,12,7.10
2016,04,29,04,13,7.10
2016,04,29,04,14,7.10
2016,04,29,04,15,7.10
2016,04,29,04,16,7.10
2016,04,29,04,17,7.10
2016,04,29,04,18,7.10
2016,04,29,04,19,7.00
2016,04,29,04,20,7.00
2016,04,29,04,21,7.00
2016,04,29,04,22,7.00
2016,04,29,04,23,7.00
2016,04,29,04,24,7.00
2016,04,29,04,25,7.00
2016,04,29,04,26,7.00
2016,04,29,04,27,7.00
2016,04,29,04,28,7.00
2016,04,29,04,29,7.00
2016,04,29,04,30,6.90
2016,04,29,04,31,6.90
2016,04,29,04,32,6.90
2016,04,29,04,33,6.90
2016,04,29,04,34,6.90
2016,04,29,04,35,6.90
2016,04,29,04,36,6.90
2016,04,29,04,37,6.90
2016,04,29,04,38,6.90
2016,04,29,04,39,6.90
2016,04,29,04,40,6.90
2016,04,29,04,41,6.90
2016,04,29,04,42,6.90
2016,04,29,04,43,6.90
2016,04,29,04,44,6.90
2016,04,29,04,45,6.90
2016,04,29,04,46,6.90
2016,04,29,04,47,6.90
2016,04,29,04,48,6.80
2016,04,29,04,49,6.80
2016,04,29,04,50,6.80
2016,04,29,04,51,6.80
2016,04,29,04,52,6.80
2016,04,29,04,53,6.80
2016,04,29,04,54,6.80
2016,04,29,04,55,6.80
2016,04,29,04,56,6.80
2016,04,29,04,57,6.80
2016,04,29,04,58,6.80
2016,04,29,04,59,6.80
2016,04,29,05,00,6.80
2016,04,29,05,01,6.80
2016,04,29,05,02,6.80
2016,04,29,05,03,6.80
2016,04,29,05,04,6.80
2016,04,29,05,05,6.80
2016,04,29,05,06,6.80
2016,04,29,05,07,6.80
2016,04,29,05,08,6.80
2016,04,29,05,09,6.80
2016,04,29,05,10,6.80
2016,04,29,05,11,6.80
2016,04,29,05,12,6.80
2016,04,29,05,13,6.80
2016,04,29,05,14,6.80
2016,04,29,05,15,6.80
2016,04,29,05,16,6.80
2016,04,29,05,17,6.70
2016,04,29,05,18,6.70
2016,04,29,05,19,6.70
2016,04,29,05,20,6.70
2016,04,29,05,21,6.70
2016,04,29,05,22,6.70
2016,04,29,05,23,6.70
2016,04,29,05,24,6.70
2016,04,29,05,25,6.70
2016,04,29,05,26,6.70
2016,04,29,05,27,6.70
2016,04,29,05,28,6.70
2016,04,29,05,29,6.70
2016,04,29,05,30,6.70
2016,04,29,05,31,6.70
2016,04,29,05,32,6.70
2016,04,29,05,33,6.70
2016,04,29,05,34,6.60
2016,04,29,05,35,6.60
2016,04,29,05,36,6.60
2016,04,29,05,37,6.60
2016,04,29,05,38,6.60
2016,04,29,05,39,6.60
2016,04,29,05,40,6.60
2016,04,29,05,41,6.60
2016,04,29,05,42,6.60
2016,04,29,05,43,6.60
2016,04,29,05,44,6.60
2016,04,29,05,45,6.60
2016,04,29,05,46,6.60
2016,04,29,05,47,6.60
2016,04,29,05,48,6.60
2016,04,29,05,49,6.60
2016,04,29,05,50,6.60
2016,04,29,05,51,6.60
2016,04,29,05,52,6.60
2016,04,29,05,53,6.60
2016,04,29,05,54,6.60
2016,04,29,05,55,6.60
2016,04,29,05,56,6.60
2016,04,29,05,57,6.60
2016,04,29,05,58,6.50
2016,04,29,05,59,6.60
2016,04,29,06,00,6.50
2016,04,29,06,01,6.50
2016,04,29,06,02,6.50
2016,04,29,06,03,6.50
2016,04,29,06,04,6.50
2016,04,29,06,05,6.50
2016,04,29,06,06,6.50
2016,04,29,06,07,6.50
2016,04,29,06,08,6.50
2016,04,29,06,09,6.50
2016,04,29,06,10,6.50
2016,04,29,06,11,6.50
2016,04,29,06,12,6.50
2016,04,29,06,13,6.50
2016,04,29,06,14,6.50
2016,04,29,06,15,6.40
2016,04,29,06,16,6.40
2016,04,29,06,17,6.40
2016,04,29,06,18,6.40
2016,04,29,06,19,6.40
2016,04,29,06,20,6.40
2016,04,29,06,21,6.40
2016,04,29,06,22,6.40
2016,04,29,06,23,6.40
2016,04,29,06,24,6.40
2016,04,29,06,25,6.40
2016,04,29,06,26,6.40
2016,04,29,06,27,6.40
2016,04,29,06,28,6.40
2016,04,29,06,29,6.40
2016,04,29,06,30,6.40
2016,04,29,06,31,6.40
2016,04,29,06,32,6.40
2016,04,29,06,33,6.40
2016,04,29,06,34,6.40
2016,04,29,06,35,6.40
2016,04,29,06,36,6.40
2016,04,29,06,37,6.40
2016,04,29,06,38,6.40
2016,04,29,06,39,6.40
2016,04,29,06,40,6.50
2016,04,29,06,41,6.50
2016,04,29,06,42,6.50
2016,04,29,06,43,6.50
2016,04,29,06,44,6.50
2016,04,29,06,45,6.50
2016,04,29,06,46,6.50
2016,04,29,06,47,6.50
2016,04,29,06,48,6.60
2016,04,29,06,49,6.60
2016,04,29,06,50,6.60
2016,04,29,06,51,6.60
2016,04,29,06,52,6.60
2016,04,29,06,53,6.60
2016,04,29,06,54,6.60
2016,04,29,06,55,6.60
2016,04,29,06,56,6.60
2016,04,29,06,57,6.60
2016,04,29,06,58,6.70
2016,04,29,06,59,6.70
2016,04,29,07,00,6.70
2016,04,29,07,01,6.70
2016,04,29,07,02,6.70
2016,04,29,07,03,6.80
2016,04,29,07,04,6.80
2016,04,29,07,05,6.80
2016,04,29,07,06,6.80
2016,04,29,07,07,6.80
2016,04,29,07,08,6.80
2016,04,29,07,09,6.80
2016,04,29,07,10,6.90
2016,04,29,07,11,6.90
2016,04,29,07,12,6.90
2016,04,29,07,13,6.90
2016,04,29,07,14,6.90
2016,04,29,07,15,6.90
2016,04,29,07,16,6.90
2016,04,29,07,17,6.90
2016,04,29,07,18,6.90
2016,04,29,07,19,6.90
2016,04,29,07,20,6.90
2016,04,29,07,21,7.00
2016,04,29,07,22,7.00
2016,04,29,07,23,7.00
2016,04,29,07,24,7.00
2016,04,29,07,25,7.10
2016,04,29,07,26,7.10
2016,04,29,07,27,7.10
2016,04,29,07,28,7.10
2016,04,29,07,29,7.20
2016,04,29,07,30,7.20
2016,04,29,07,31,7.20
2016,04,29,07,32,7.20
2016,04,29,07,33,7.20
2016,04,29,07,34,7.20
2016,04,29,07,35,7.20
2016,04,29,07,36,7.20
2016,04,29,07,37,7.30
2016,04,29,07,38,7.30
2016,04,29,07,39,7.30
2016,04,29,07,40,7.30
2016,04,29,07,41,7.30
2016,04,29,07,42,7.30
2016,04,29,07,43,7.30
2016,04,29,07,44,7.40
2016,04,29,07,45,7.40
2016,04,29,07,46,7.40
2016,04,29,07,47,7.50
2016,04,29,07,48,7.50
2016,04,29,07,49,7.60
2016,04,29,07,50,7.60
2016,04,29,07,51,7.60
2016,04,29,07,52,7.70
2016,04,29,07,53,7.70
2016,04,29,07,54,7.70
2016,04,29,07,55,7.70
2016,04,29,07,56,7.70
2016,04,29,07,57,7.70
2016,04,29,07,58,7.80
2016,04,29,07,59,7.80
2016,04,29,08,00,7.80
2016,04,29,08,01,7.80
2016,04,29,08,02,7.80
2016,04,29,08,03,7.90
2016,04,29,08,04,8.00
2016,04,29,08,05,8.00
2016,04,29,08,06,8.00
2016,04,29,08,07,8.00
2016,04,29,08,08,8.00
2016,04,29,08,09,8.10
2016,04,29,08,10,8.10
2016,04,29,08,11,8.10
2016,04,29,08,12,8.10
2016,04,29,08,13,8.10
2016,04,29,08,14,8.10
2016,04,29,08,15,8.20
2016,04,29,08,16,8.20
2016,04,29,08,17,8.20
2016,04,29,08,18,8.20
2016,04,29,08,19,8.20
2016,04,29,08,20,8.30
2016,04,29,08,21,8.30
2016,04,29,08,22,8.30
2016,04,29,08,23,8.30
2016,04,29,08,24,8.40
2016,04,29,08,25,8.40
2016,04,29,08,26,8.40
2016,04,29,08,27,8.40
2016,04,29,08,28,8.40
2016,04,29,08,29,8.40
2016,04,29,08,30,8.40
2016,04,29,08,31,8.40
2016,04,29,08,32,8.40
2016,04,29,08,33,8.40
2016,04,29,08,34,8.40
2016,04,29,08,35,8.40
2016,04,29,08,36,8.50
2016,04,29,08,37,8.50
2016,04,29,08,38,8.50
2016,04,29,08,39,8.50
2016,04,29,08,40,8.50
2016,04,29,08,41,8.60
2016,04,29,08,42,8.60
2016,04,29,08,43,8.60
2016,04,29,08,44,8.70
2016,04,29,08,45,8.70
2016,04,29,08,46,8.70
2016,04,29,08,47,8.80
2016,04,29,08,48,8.80
2016,04,29,08,49,8.90
2016,04,29,08,50,8.90
2016,04,29,08,51,8.90
2016,04,29,08,52,9.00
2016,04,29,08,53,9.00
2016,04,29,08,54,9.00
2016,04,29,08,55,9.00
2016,04,29,08,56,9.00
2016,04,29,08,57,9.10
2016,04,29,08,58,9.10
2016,04,29,08,59,9.10
2016,04,29,09,00,9.10
2016,04,29,09,01,9.00
2016,04,29,09,02,9.00
2016,04,29,09,03,9.00
2016,04,29,09,04,9.10
2016,04,29,09,05,9.10
2016,04,29,09,06,9.10
2016,04,29,09,07,9.10
2016,04,29,09,08,9.10
2016,04,29,09,09,9.20
2016,04,29,09,10,9.20
2016,04,29,09,11,9.20
2016,04,29,09,12,9.20
2016,04,29,09,13,9.20
2016,04,29,09,14,9.20
2016,04,29,09,15,9.20
2016,04,29,09,16,9.20
2016,04,29,09,17,9.30
2016,04,29,09,18,9.30
2016,04,29,09,19,9.30
2016,04,29,09,20,9.30
2016,04,29,09,21,9.40
2016,04,29,09,22,9.50
2016,04,29,09,23,9.50
2016,04,29,09,24,9.50
2016,04,29,09,25,9.60
2016,04,29,09,26,9.60
2016,04,29,09,27,9.70
2016,04,29,09,28,9.70
2016,04,29,09,29,9.70
2016,04,29,09,30,9.80
2016,04,29,09,31,9.80
2016,04,29,09,32,9.80
2016,04,29,09,33,9.80
2016,04,29,09,34,9.90
2016,04,29,09,35,9.90
2016,04,29,09,36,10.00
2016,04,29,09,37,10.00
2016,04,29,09,38,10.10
2016,04,29,09,39,10.10
2016,04,29,09,40,10.20
2016,04,29,09,41,10.20
2016,04,29,09,42,10.20
2016,04,29,09,43,10.20
2016,04,29,09,44,10.20
2016,04,29,09,45,10.20
2016,04,29,09,46,10.20
2016,04,29,09,47,10.30
2016,04,29,09,48,10.30
2016,04,29,09,49,10.30
2016,04,29,09,50,10.40
2016,04,29,09,51,10.40
2016,04,29,09,52,10.50
2016,04,29,09,53,10.50
2016,04,29,09,54,10.60
2016,04,29,09,55,10.70
2016,04,29,09,56,10.70
2016,04,29,09,57,10.70
2016,04,29,09,58,10.80
2016,04,29,09,59,10.80
2016,04,29,10,00,10.90
2016,04,29,10,01,11.00
2016,04,29,10,02,11.10
2016,04,29,10,03,11.20
2016,04,29,10,04,11.30
2016,04,29,10,05,11.40
2016,04,29,10,06,11.50
2016,04,29,10,07,11.60
2016,04,29,10,08,11.60
2016,04,29,10,09,11.60
2016,04,29,10,10,11.60
2016,04,29,10,11,11.70
2016,04,29,10,12,11.70
2016,04,29,10,13,11.70
2016,04,29,10,14,11.60
2016,04,29,10,15,11.60
2016,04,29,10,16,11.60
2016,04,29,10,17,11.60
2016,04,29,10,18,11.60
2016,04,29,10,19,11.60
2016,04,29,10,20,11.60
2016,04,29,10,21,11.70
2016,04,29,10,22,11.70
2016,04,29,10,23,11.70
2016,04,29,10,24,11.70
2016,04,29,10,25,11.70
2016,04,29,10,26,11.70
2016,04,29,10,27,11.70
2016,04,29,10,28,11.70
2016,04,29,10,29,11.80
2016,04,29,10,30,11.80
2016,04,29,10,31,11.90
2016,04,29,10,32,12.00
2016,04,29,10,33,12.00
2016,04,29,10,34,12.10
2016,04,29,10,35,12.10
2016,04,29,10,36,12.20
2016,04,29,10,37,12.20
2016,04,29,10,38,12.30
2016,04,29,10,39,12.30
2016,04,29,10,40,12.30
2016,04,29,10,41,12.30
2016,04,29,10,42,12.40
2016,04,29,10,43,12.50
2016,04,29,10,44,12.60
2016,04,29,10,45,12.70
2016,04,29,10,46,12.80
2016,04,29,10,47,12.90
2016,04,29,10,48,12.90
2016,04,29,10,49,13.00
2016,04,29,10,50,13.10
2016,04,29,10,51,13.10
2016,04,29,10,52,13.20
2016,04,29,10,53,13.30
2016,04,29,10,54,13.30
2016,04,29,10,55,13.30
2016,04,29,10,56,13.20
2016,04,29,10,57,13.20
2016,04,29,10,58,13.20
2016,04,29,10,59,13.20
2016,04,29,11,00,13.20
2016,04,29,11,01,13.30
2016,04,29,11,02,13.40
2016,04,29,11,03,13.50
2016,04,29,11,04,13.50
2016,04,29,11,05,13.50
2016,04,29,11,06,13.50
2016,04,29,11,07,13.60
2016,04,29,11,08,13.60
2016,04,29,11,09,13.60
2016,04,29,11,10,13.60
2016,04,29,11,11,13.70
2016,04,29,11,12,13.70
2016,04,29,11,13,13.70
2016,04,29,11,14,13.70
2016,04,29,11,15,13.70
2016,04,29,11,16,13.80
2016,04,29,11,17,13.90
2016,04,29,11,18,14.00
2016,04,29,11,19,14.00
2016,04,29,11,20,14.00
2016,04,29,11,21,14.00
2016,04,29,11,22,13.90
2016,04,29,11,23,13.80
2016,04,29,11,24,13.70
2016,04,29,11,25,13.70
2016,04,29,11,26,13.70
2016,04,29,11,27,13.70
2016,04,29,11,28,13.70
2016,04,29,11,29,13.70
2016,04,29,11,30,13.80
2016,04,29,11,31,13.90
2016,04,29,11,32,14.00
2016,04,29,11,33,14.00
2016,04,29,11,34,14.00
2016,04,29,11,35,14.10
2016,04,29,11,36,14.10
2016,04,29,11,37,14.10
2016,04,29,11,38,14.10
2016,04,29,11,39,14.10
2016,04,29,11,40,14.20
2016,04,29,11,41,14.20
2016,04,29,11,42,14.30
2016,04,29,11,43,14.30
2016,04,29,11,44,14.30
2016,04,29,11,45,14.30
2016,04,29,11,46,14.30
2016,04,29,11,47,14.40
2016,04,29,11,48,14.40
2016,04,29,11,49,14.40
2016,04,29,11,50,14.40
2016,04,29,11,51,14.40
2016,04,29,11,52,14.40
2016,04,29,11,53,14.40
2016,04,29,11,54,14.50
2016,04,29,11,55,14.60
2016,04,29,11,56,14.70
2016,04,29,11,57,14.70
2016,04,29,11,58,14.80
2016,04,29,11,59,14.80
2016,04,29,12,00,14.90
2016,04,29,12,01,15.00
2016,04,29,12,02,15.10
2016,04,29,12,03,15.30
2016,04,29,12,04,15.40
2016,04,29,12,05,15.40
2016,04,29,12,06,15.50
2016,04,29,12,07,15.50
2016,04,29,12,08,15.40
2016,04,29,12,09,15.40
2016,04,29,12,10,15.50
2016,04,29,12,11,15.50
2016,04,29,12,12,15.60
2016,04,29,12,13,15.60
2016,04,29,12,14,15.70
2016,04,29,12,15,15.80
2016,04,29,12,16,15.90
2016,04,29,12,17,16.00
2016,04,29,12,18,16.00
2016,04,29,12,19,15.90
2016,04,29,12,20,15.90
2016,04,29,12,21,16.00
2016,04,29,12,22,15.90
2016,04,29,12,23,16.00
2016,04,29,12,24,16.10
2016,04,29,12,25,16.20
2016,04,29,12,26,16.20
2016,04,29,12,27,16.20
2016,04,29,12,28,16.20
2016,04,29,12,29,16.20
2016,04,29,12,30,16.10
2016,04,29,12,31,16.10
2016,04,29,12,32,16.10
2016,04,29,12,33,16.20
2016,04,29,12,34,16.20
2016,04,29,12,35,16.20
2016,04,29,12,36,16.20
2016,04,29,12,37,16.20
2016,04,29,12,38,16.20
2016,04,29,12,39,16.30
2016,04,29,12,40,16.40
2016,04,29,12,41,16.60
2016,04,29,12,42,16.70
2016,04,29,12,43,16.70
2016,04,29,12,44,16.80
2016,04,29,12,45,16.70
2016,04,29,12,46,16.60
2016,04,29,12,47,16.50
2016,04,29,12,48,16.40
2016,04,29,12,49,16.40
2016,04,29,12,50,16.30
2016,04,29,12,51,16.20
2016,04,29,12,52,16.10
2016,04,29,12,53,16.10
2016,04,29,12,54,16.20
2016,04,29,12,55,16.30
2016,04,29,12,56,16.40
2016,04,29,12,57,16.50
2016,04,29,12,58,16.60
2016,04,29,12,59,16.70
2016,04,29,13,00,16.70
2016,04,29,13,01,16.70
2016,04,29,13,02,16.70
2016,04,29,13,03,16.80
2016,04,29,13,04,16.90
2016,04,29,13,05,17.00
2016,04,29,13,06,17.00
2016,04,29,13,07,17.00
2016,04,29,13,08,17.00
2016,04,29,13,09,16.90
2016,04,29,13,10,16.90
2016,04,29,13,11,16.80
2016,04,29,13,12,16.80
2016,04,29,13,13,16.70
2016,04,29,13,14,16.80
2016,04,29,13,15,16.80
2016,04,29,13,16,16.90
2016,04,29,13,17,17.00
2016,04,29,13,18,17.10
2016,04,29,13,19,17.20
2016,04,29,13,20,17.30
2016,04,29,13,21,17.20
2016,04,29,13,22,17.30
2016,04,29,13,23,17.30
2016,04,29,13,24,17.30
2016,04,29,13,25,17.40
2016,04,29,13,26,17.40
2016,04,29,13,27,17.50
2016,04,29,13,28,17.50
2016,04,29,13,29,17.60
2016,04,29,13,30,17.50
2016,04,29,13,31,17.50
2016,04,29,13,32,17.40
2016,04,29,13,33,17.40
2016,04,29,13,34,17.40
2016,04,29,13,35,17.40
2016,04,29,13,36,17.40
2016,04,29,13,37,17.50
2016,04,29,13,38,17.60
2016,04,29,13,39,17.60
2016,04,29,13,40,17.70
2016,04,29,13,41,17.70
2016,04,29,13,42,17.70
2016,04,29,13,43,17.60
2016,04,29,13,44,17.50
2016,04,29,13,45,17.50
2016,04,29,13,46,17.50
2016,04,29,13,47,17.50
2016,04,29,13,48,17.60
2016,04,29,13,49,17.70
2016,04,29,13,50,17.70
2016,04,29,13,51,17.70
2016,04,29,13,52,17.80
2016,04,29,13,53,17.80
2016,04,29,13,54,17.80
2016,04,29,13,55,17.80
2016,04,29,13,56,17.80
2016,04,29,13,57,17.80
2016,04,29,13,58,17.80
2016,04,29,13,59,17.80
2016,04,29,14,00,17.90
2016,04,29,14,01,17.90
2016,04,29,14,02,17.90
2016,04,29,14,03,17.90
2016,04,29,14,04,17.90
2016,04,29,14,05,18.00
2016,04,29,14,06,18.10
2016,04,29,14,07,18.20
2016,04,29,14,08,18.20
2016,04,29,14,09,18.10
2016,04,29,14,10,18.10
2016,04,29,14,11,18.10
2016,04,29,14,12,18.20
2016,04,29,14,13,18.20
2016,04,29,14,14,18.30
2016,04,29,14,15,18.40
2016,04,29,14,16,18.60
2016,04,29,14,17,18.60
2016,04,29,14,18,18.50
2016,04,29,14,19,18.40
2016,04,29,14,20,18.30
2016,04,29,14,21,18.30
2016,04,29,14,22,18.30
2016,04,29,14,23,18.20
2016,04,29,14,24,18.20
2016,04,29,14,25,18.20
2016,04,29,14,26,18.30
2016,04,29,14,27,18.30
2016,04,29,14,28,18.40
2016,04,29,14,29,18.40
2016,04,29,14,30,18.50
2016,04,29,14,31,18.60
2016,04,29,14,32,18.60
2016,04,29,14,33,18.60
2016,04,29,14,34,18.50
2016,04,29,14,35,18.40
2016,04,29,14,36,18.40
2016,04,29,14,37,18.40
2016,04,29,14,38,18.40
2016,04,29,14,39,18.30
2016,04,29,14,40,18.30
2016,04,29,14,41,18.40
2016,04,29,14,42,18.50
2016,04,29,14,43,18.60
2016,04,29,14,44,18.50
2016,04,29,14,45,18.40
2016,04,29,14,46,18.40
2016,04,29,14,47,18.40
2016,04,29,14,48,18.50
2016,04,29,14,49,18.60
2016,04,29,14,50,18.70
2016,04,29,14,51,18.70
2016,04,29,14,52,18.70
2016,04,29,14,53,18.60
2016,04,29,14,54,18.40
2016,04,29,14,55,18.30
2016,04,29,14,56,18.30
2016,04,29,14,57,18.30
2016,04,29,14,58,18.40
2016,04,29,14,59,18.40
2016,04,29,15,00,18.40
2016,04,29,15,01,18.50
2016,04,29,15,02,18.60
2016,04,29,15,03,18.60
2016,04,29,15,04,18.60
2016,04,29,15,05,18.60
2016,04,29,15,06,18.60
2016,04,29,15,07,18.50
2016,04,29,15,08,18.40
2016,04,29,15,09,18.40
2016,04,29,15,10,18.40
2016,04,29,15,11,18.50
2016,04,29,15,12,18.60
2016,04,29,15,13,18.60
2016,04,29,15,14,18.50
2016,04,29,15,15,18.40
2016,04,29,15,16,18.40
2016,04,29,15,17,18.40
2016,04,29,15,18,18.40
2016,04,29,15,19,18.30
2016,04,29,15,20,18.30
2016,04,29,15,21,18.40
2016,04,29,15,22,18.40
2016,04,29,15,23,18.50
2016,04,29,15,24,18.50
2016,04,29,15,25,18.50
2016,04,29,15,26,18.40
2016,04,29,15,27,18.40
2016,04,29,15,28,18.40
2016,04,29,15,29,18.40
2016,04,29,15,30,18.40
2016,04,29,15,31,18.50
2016,04,29,15,32,18.50
2016,04,29,15,33,18.40
2016,04,29,15,34,18.30
2016,04,29,15,35,18.40
2016,04,29,15,36,18.40
2016,04,29,15,37,18.40
2016,04,29,15,38,18.40
2016,04,29,15,39,18.40
2016,04,29,15,40,18.40
2016,04,29,15,41,18.60
2016,04,29,15,42,18.60
2016,04,29,15,43,18.70
2016,04,29,15,44,18.60
2016,04,29,15,45,18.60
2016,04,29,15,46,18.60
2016,04,29,15,47,18.60
2016,04,29,15,48,18.50
2016,04,29,15,49,18.50
2016,04,29,15,50,18.50
2016,04,29,15,51,18.40
2016,04,29,15,52,18.40
2016,04,29,15,53,18.50
2016,04,29,15,54,18.40
2016,04,29,15,55,18.30
2016,04,29,15,56,18.20
2016,04,29,15,57,18.20
2016,04,29,15,58,18.20
2016,04,29,15,59,18.20
2016,04,29,16,00,18.20
2016,04,29,16,01,18.20
2016,04,29,16,02,18.00
2016,04,29,16,03,18.00
2016,04,29,16,04,17.90
2016,04,29,16,05,17.90
2016,04,29,16,06,18.00
2016,04,29,16,07,18.10
2016,04,29,16,08,18.10
2016,04,29,16,09,18.20
2016,04,29,16,10,18.10
2016,04,29,16,11,18.00
2016,04,29,16,12,18.00
2016,04,29,16,13,17.90
2016,04,29,16,14,17.90
2016,04,29,16,15,17.80
2016,04,29,16,16,17.70
2016,04,29,16,17,17.60
2016,04,29,16,18,17.50
2016,04,29,16,19,17.40
2016,04,29,16,20,17.40
2016,04,29,16,21,17.30
2016,04,29,16,22,17.30
2016,04,29,16,23,17.30
2016,04,29,16,24,17.30
2016,04,29,16,25,17.30
2016,04,29,16,26,17.30
2016,04,29,16,27,17.30
2016,04,29,16,28,17.30
2016,04,29,16,29,17.40
2016,04,29,16,30,17.40
2016,04,29,16,31,17.40
2016,04,29,16,32,17.40
2016,04,29,16,33,17.40
2016,04,29,16,34,17.40
2016,04,29,16,35,17.40
2016,04,29,16,36,17.40
2016,04,29,16,37,17.40
2016,04,29,16,38,17.50
2016,04,29,16,39,17.50
2016,04,29,16,40,17.60
2016,04,29,16,41,17.60
2016,04,29,16,42,17.60
2016,04,29,16,43,17.60
2016,04,29,16,44,17.60
2016,04,29,16,45,17.60
2016,04,29,16,46,17.60
2016,04,29,16,47,17.60
2016,04,29,16,48,17.60
2016,04,29,16,49,17.60
2016,04,29,16,50,17.70
2016,04,29,16,51,17.90
2016,04,29,16,52,18.00
2016,04,29,16,53,18.00
2016,04,29,16,54,18.10
2016,04,29,16,55,18.20
2016,04,29,16,56,18.20
2016,04,29,16,57,18.10
2016,04,29,16,58,18.00
2016,04,29,16,59,17.90
2016,04,29,17,00,17.80
2016,04,29,17,01,17.70
2016,04,29,17,02,17.70
2016,04,29,17,03,17.70
2016,04,29,17,04,17.70
2016,04,29,17,05,17.70
2016,04,29,17,06,17.70
2016,04,29,17,07,17.70
2016,04,29,17,08,17.70
2016,04,29,17,09,17.80
2016,04,29,17,10,17.80
2016,04,29,17,11,17.90
2016,04,29,17,12,17.90
2016,04,29,17,13,17.90
2016,04,29,17,14,18.00
2016,04,29,17,15,18.00
2016,04,29,17,16,18.10
2016,04,29,17,17,18.20
2016,04,29,17,18,18.30
2016,04,29,17,19,18.30
2016,04,29,17,20,18.40
2016,04,29,17,21,18.40
2016,04,29,17,22,18.50
2016,04,29,17,23,18.60
2016,04,29,17,24,18.60
2016,04,29,17,25,18.60
2016,04,29,17,26,18.60
2016,04,29,17,27,18.60
2016,04,29,17,28,18.60
2016,04,29,17,29,18.70
2016,04,29,17,30,18.70
2016,04,29,17,31,18.70
2016,04,29,17,32,18.60
2016,04,29,17,33,18.60
2016,04,29,17,34,18.60
2016,04,29,17,35,18.60
2016,04,29,17,36,18.50
2016,04,29,17,37,18.50
2016,04,29,17,38,18.50
2016,04,29,17,39,18.50
2016,04,29,17,40,18.60
2016,04,29,17,41,18.60
2016,04,29,17,42,18.50
2016,04,29,17,43,18.30
2016,04,29,17,44,18.20
2016,04,29,17,45,18.10
2016,04,29,17,46,18.10
2016,04,29,17,47,18.10